DECAYED

STARLINK-4668, 53596 (Decayed)

Orbit data source: Space-Track

STARLINK-4668, 53596 was a payload satellite owned by SpaceX/Seattle (US) in LEO that was launched on Sun, 28 Aug 2022 UTC via an FALCON 9 launch vehicle from the Air Force Eastern Test Range (AFETR). Payload-class satellites include a variety of spacecraft equipped with specific instruments for various scientific and technological missions. These include communications satellites like Starlink; space stations such as the ISS; scientific satellites like the Hubble; Earth observation satellites from companies like Planet Labs, Umbra, and HawkEye 360; GPS; miniature CubeSats for education and research; and military/defense satellites.

Not visible in the next 10 days
Identifier
53596, 2022-104J
Orbit
Decayed
Country
Flag of USUS
Related business
Manufacturer
SpaceX/Seattle
Mission
Decayed Commercial Communications
Bus & Motor
STARLINK, Unknown motor
Mass
300 kg wet, ~290 kg dry
Launch date (UTC)
2022-08-28 (3 years ago)
Launch vehicle
FALCON 9
Launch site
Air Force Eastern Test Range (AFETR)
Object type
Payload
Rocket body
Debris
Shape & HBR
Box + 1 Pan, 10.1 m
Radar Cross Section
13.562 m², Large (>1 m²)

Expand to show TLE details & history
Last TLE update: 4 months ago

TLE from 4 months ago
0 STARLINK-4668
1 53596U 22104J   25164.73799872  .41423365  12442-4  24806-2 0  9994
2 53596  53.1843 280.9650 0005723 304.0285 211.5534 16.41526054155593
Epoch: 2025-06-13T17:42Z
TLE epoch observation values (Epoch: 2025-06-13T17:42:43.089Z)
Latitude
19.39343°
Longitude
-82.18978°
Altitude
165.387 km
Speed
7.808 km/s
True Right ascension
05h 43m 06s
True Declination
19° 16' 34"
Sunlit
Object was in daylight at epoch
Visualization orbit readout
Latitude
Unknown
Longitude
Unknown
Altitude
Unknown
Speed
Unknown
Apparent Right ascension
Unknown
Apparent Declination
Unknown
Sunlit
N/A
Visualization observer readout
Local Sidereal Time
09:57:36
Azimuth
Unknown
Elevation
Unknown
Doppler factor
Unknown
Orbital elements
Apogee altitude
165.753 km
Perigee altitude
158.267 km
Semi-major axis
6,540.147 km
Eccentricity
0.00057
Inclination
53.1843°
RAAN
280.965°
Arg. of periapsis
304.0285°
True anomaly
211.5191°
Mean anomaly
211.5534°
Eccentric anomaly
211.53625°
Mean motion
4.10357 °/min
Orbital period
87.73 mins
BSTAR
0.0024806
Loading maneuver chart data...
Computing Atmospheric mass density...
Loading historical data...
Loading historical data...
Loading historical data...
Loading historical data...
Loading historical data...
Loading historical data...
Loading historical data...

Documentation

Showing up to 5 results
|